Wind_Speed
27 27 27 27 27 28 28 28 28 27 27 27 26 25 25 25 24 24 25 26 26 27 27 28 29 29 28 27 27 27 26 27 28 27 26 26 26 26 26 27 28 29 31 33 35 37 38 39 40 41 41 42 43 43 43 42 42 41 40 39 39 39 38 37 35 35 38 37 37 38 38 38 38 39 40 42 43 44 44 44 46 47 48 48 49
28 28 27 27 28 28 29 29 29 29 28 27 26 26 25 26 26 26 27 28 29 29 29 30 31 30 29 29 29 29 28 29 29 29 29 28 28 28 28 29 29 30 32 33 36 38 40 40 41 42 42 43 44 44 45 45 45 44 43 42 42 41 40 39 37 37 39 38 36 37 38 38 38 39 40 41 43 45 46 47 47 49 50 50 50
28 27 28 28 28 28 29 30 30 30 29 29 28 27 26 27 27 28 29 29 30 31 30 31 31 31 30 30 31 31 31 31 31 31 31 30 30 30 30 30 31 31 33 35 37 40 42 42 42 43 43 44 45 46 46 47 47 47 47 46 45 44 43 41 39 38 40 39 36 36 37 37 37 37 38 40 42 45 47 48 49 50 51 51 50
28 28 29 30 30 30 30 30 31 31 31 30 29 29 29 29 30 30 30 30 31 31 31 32 31 31 30 30 32 33 33 33 33 33 33 33 32 32 33 33 33 33 34 36 38 41 44 45 44 44 44 44 45 46 47 47 48 48 49 49 48 47 46 44 40 38 39 37 35 36 37 36 37 37 37 39 42 45 47 49 50 51 52 52 52
30 30 31 31 31 32 32 32 32 32 32 32 31 31 31 31 31 32 32 32 32 32 32 32 32 31 31 32 34 35 36 36 35 35 35 35 34 34 35 35 35 35 36 37 39 42 45 46 46 47 47 46 45 46 48 48 49 49 50 51 50 50 49 46 40 36 35 35 34 37 38 36 37 37 38 40 42 45 47 50 51 52 53 54 54
32 32 32 33 33 34 34 34 34 33 33 33 34 34 34 33 33 33 33 33 34 34 33 33 33 33 33 34 35 36 37 38 38 37 37 37 37 36 37 37 37 38 39 40 41 43 46 48 48 49 50 48 47 47 48 50 50 50 51 52 52 51 50 48 42 34 31 32 33 37 38 37 37 37 39 41 43 45 48 51 53 54 55 57 57
35 35 35 36 36 36 36 36 35 34 35 36 36 36 36 35 34 34 34 35 35 35 35 34 34 34 35 36 37 37 39 40 40 39 38 39 39 39 39 39 39 40 41 42 43 45 47 49 49 51 52 51 50 49 49 50 51 51 51 52 53 52 51 50 44 34 29 30 33 36 38 36 36 37 39 42 44 46 49 52 54 55 57 58 59
37 37 37 38 39 40 39 38 37 37 37 38 38 38 37 36 36 36 36 36 36 36 36 36 36 36 37 38 38 39 40 41 42 41 40 40 41 42 42 42 41 42 43 44 45 46 48 50 51 52 54 54 53 52 51 51 52 52 51 52 53 52 51 50 45 36 31 30 32 35 35 33 34 36 39 42 44 47 50 53 55 57 58 59 60
39 39 39 41 42 41 40 40 40 40 40 40 39 39 38 38 38 37 37 37 37 37 37 38 38 39 40 40 41 41 42 43 43 42 42 42 43 44 45 45 44 45 46 47 48 49 50 52 52 53 55 55 55 55 53 52 52 53 52 52 52 52 50 49 45 38 34 32 31 31 30 30 32 35 38 42 45 47 51 54 56 58 59 60 61
41 40 41 42 43 42 41 40 41 41 41 41 40 40 39 39 39 39 39 39 39 39 40 41 41 42 42 42 43 43 44 44 45 44 44 44 45 46 47 48 48 48 49 51 52 53 53 54 54 55 56 57 57 57 56 54 53 54 53 53 52 51 48 46 42 37 34 32 30 27 26 28 31 34 38 42 46 49 52 55 57 59 60 62 62
43 43 44 45 44 43 42 42 43 43 43 42 42 42 42 42 42 42 42 42 42 42 43 43 43 43 44 44 44 45 46 46 47 47 47 48 48 48 49 51 51 52 53 54 55 57 57 57 57 57 57 58 58 58 57 55 55 55 55 53 51 49 45 42 39 35 33 32 29 26 25 28 31 34 39 43 46 50 53 55 57 59 61 63 64
46 46 47 47 46 46 45 45 46 46 45 45 44 44 44 45 45 45 45 44 44 44 45 45 45 45 46 46 46 47 48 49 49 49 49 51 51 51 51 53 54 55 56 58 59 60 61 61 60 60 59 59 59 58 58 56 56 56 55 53 50 47 41 38 36 34 32 31 28 25 26 29 31 35 39 43 47 50 53 55 58 60 62 64 65
49 49 49 49 49 48 48 48 48 48 48 47 46 46 46 47 48 47 47 46 46 47 47 46 47 47 48 49 49 50 51 52 52 52 52 54 54 53 54 55 57 58 60 61 62 63 64 64 63 63 63 62 60 59 58 58 58 57 55 52 49 44 37 34 34 33 33 31 27 25 27 30 32 36 40 44 48 51 54 56 58 61 63 65 67
53 53 52 51 52 51 50 51 51 51 50 50 49 49 49 50 50 50 50 49 49 50 49 49 50 50 51 52 52 53 54 55 56 56 56 57 57 57 57 58 59 61 62 64 64 65 67 66 66 66 66 65 63 60 59 60 60 57 53 49 47 41 34 33 34 34 33 31 28 27 29 31 33 37 41 45 49 52 54 57 59 61 63 65 67
57 56 56 55 55 55 55 55 55 54 53 53 52 52 53 53 54 53 53 53 53 53 53 54 54 54 54 55 56 57 58 59 60 60 60 60 60 60 61 62 63 64 65 65 66 67 68 69 69 69 69 69 66 63 61 60 58 54 49 45 43 38 33 32 33 33 33 31 28 28 31 32 34 38 43 46 50 52 55 57 59 62 64 66 68
60 60 60 60 59 59 59 59 58 58 57 56 56 57 57 57 57 57 56 56 57 57 57 58 58 58 58 58 59 61 62 63 63 64 64 64 64 64 63 64 65 66 67 67 68 69 70 70 70 71 71 70 68 64 60 56 53 50 46 42 40 37 32 32 33 32 32 31 29 30 33 34 36 40 44 48 51 54 56 58 61 63 66 67 69
59 60 61 61 61 61 62 61 61 61 60 60 60 61 61 61 61 61 61 60 61 61 61 61 62 62 62 63 63 64 65 66 66 67 67 67 67 67 66 67 68 68 68 69 69 70 71 71 71 71 71 70 66 61 54 49 48 47 43 41 40 36 32 32 34 32 31 30 31 33 35 35 38 42 46 50 53 55 57 59 62 65 67 68 70
55 56 57 58 58 59 60 60 61 61 61 62 63 63 63 63 63 63 63 64 64 64 65 65 64 64 65 66 66 66 67 67 68 69 69 69 69 68 68 68 68 67 68 69 70 70 70 70 69 68 67 65 59 52 46 43 43 43 40 39 38 34 31 32 34 33 30 30 32 35 37 38 40 44 47 51 54 57 59 60 63 66 67 69 71
48 49 51 52 52 53 54 55 57 58 59 60 61 61 62 62 62 62 63 63 63 64 64 64 64 64 64 64 65 65 66 66 66 67 67 68 68 68 67 66 66 65 64 65 66 65 65 65 63 62 60 56 50 45 41 38 37 37 37 37 36 34 32 33 34 33 32 32 34 37 39 40 43 46 49 52 55 58 60 62 64 67 68 70 72
43 44 45 46 46 47 48 50 50 51 52 53 54 54 55 56 56 56 57 57 57 58 58 58 59 59 60 60 60 60 61 62 61 62 63 64 64 64 63 62 62 60 59 59 59 58 58 58 55 53 51 47 43 41 36 31 31 33 34 36 36 35 33 33 34 34 34 34 36 39 41 43 46 48 50 53 57 59 61 64 66 68 70 71 73
40 41 42 42 42 43 44 45 45 46 46 47 47 48 49 50 49 49 50 50 51 51 51 52 52 53 54 55 55 55 56 56 55 55 56 59 60 60 59 59 58 57 55 53 52 52 51 48 44 43 42 39 38 37 32 28 29 32 34 36 36 35 34 34 34 35 34 36 39 41 43 46 48 50 52 54 58 60 62 65 68 70 71 73 75
39 40 41 41 41 41 41 42 43 43 43 44 44 45 46 46 46 47 47 47 47 48 48 48 48 49 49 50 51 52 52 53 52 52 52 53 55 56 56 56 56 55 52 50 49 47 43 38 36 37 37 35 33 32 29 28 30 32 35 37 37 37 35 33 34 35 35 37 41 43 46 49 51 52 53 56 60 61 63 67 70 72 73 74 75
40 41 42 42 42 42 42 42 43 43 43 44 44 44 45 46 46 46 46 46 47 47 47 47 47 47 47 48 49 50 50 51 52 52 52 52 52 53 54 55 55 51 47 45 44 41 37 34 32 32 34 33 31 30 29 30 31 34 36 36 37 38 37 35 35 37 38 40 43 46 49 52 53 53 56 58 60 62 64 68 71 74 75 75 76
41 42 42 42 43 42 42 42 43 43 44 45 44 44 46 47 47 47 47 47 47 47 47 47 47 46 47 48 49 50 50 51 52 52 52 53 52 53 54 55 53 47 43 40 39 38 37 34 30 31 35 34 31 30 30 31 32 35 35 35 36 37 37 37 38 39 41 44 47 49 52 53 53 55 59 60 61 63 66 69 73 76 77 77 78
43 43 43 43 43 43 43 44 45 45 46 47 46 46 48 49 49 49 49 49 49 48 48 48 47 47 47 48 49 50 50 51 52 52 52 53 54 54 54 54 51 45 41 39 37 35 34 32 31 35 40 40 36 32 31 32 35 36 34 34 35 37 38 40 41 42 45 48 50 52 53 54 56 59 61 60 61 65 68 71 74 77 79 79 79
45 45 45 45 45 45 45 46 48 48 49 49 49 49 50 50 50 51 51 51 51 51 50 49 49 49 49 49 50 50 50 51 52 52 52 54 56 56 54 53 50 44 40 37 33 31 33 36 38 42 44 44 40 36 35 35 36 34 32 32 35 37 40 42 43 45 48 50 52 53 54 56 60 62 61 60 63 67 71 73 76 78 79 81 81
47 48 48 48 48 48 48 48 49 49 50 49 50 50 51 51 52 52 53 54 54 53 53 52 51 50 50 50 50 50 51 52 52 52 52 53 56 56 53 50 48 44 40 36 35 38 44 48 48 45 42 41 39 37 41 42 38 34 33 34 36 40 41 42 44 47 49 52 53 54 56 59 62 63 61 60 64 69 73 75 78 79 80 82 82
51 51 51 51 51 50 51 51 51 51 51 51 50 51 51 52 53 53 54 55 55 55 55 54 54 53 52 50 51 52 52 53 54 54 53 52 53 53 50 47 46 44 40 37 38 45 51 54 53 49 43 40 39 39 42 47 46 42 40 40 42 44 43 42 45 48 50 52 54 57 60 61 62 63 62 61 65 71 75 77 79 80 81 82 83
55 55 54 54 54 54 54 54 53 53 53 53 52 52 52 53 53 54 55 56 56 56 57 56 56 56 54 52 51 51 52 52 54 55 55 52 51 50 47 44 45 44 40 35 34 38 43 47 50 49 46 45 46 46 46 48 52 52 50 49 51 50 46 45 47 48 50 53 56 60 63 63 62 63 63 62 67 73 77 78 79 81 82 83 84
58 58 58 58 57 57 57 57 57 56 56 56 56 56 56 55 55 55 56 56 57 57 58 58 59 57 54 52 51 51 51 52 54 56 56 54 52 50 47 45 44 41 36 30 28 32 41 48 51 51 51 54 56 55 52 50 51 52 51 53 57 57 53 51 51 51 54 58 60 63 67 67 65 64 63 64 70 75 78 79 80 82 83 84 84
61 61 61 61 61 61 60 60 60 60 59 59 59 59 59 59 58 58 58 58 58 59 59 60 59 57 54 52 51 52 53 53 54 57 56 54 52 51 49 47 43 39 36 32 28 31 42 54 60 61 62 64 63 59 54 51 50 51 52 56 60 61 60 59 59 59 61 64 65 68 70 69 66 65 64 67 73 77 79 80 81 82 83 84 85
64 64 64 64 64 64 64 63 63 63 63 63 62 62 62 61 61 61 61 61 61 61 61 61 60 58 55 52 51 52 54 54 55 57 55 53 52 50 46 45 45 44 42 39 35 34 41 51 59 64 67 68 66 60 54 50 50 52 55 57 58 59 61 63 63 63 65 67 69 70 71 70 68 67 68 70 74 77 79 81 82 82 83 84 85
67 67 67 67 67 67 67 67 67 67 67 67 66 66 65 64 64 64 64 63 63 63 62 62 61 59 55 53 52 52 52 53 55 56 55 53 50 45 42 43 46 48 45 37 32 33 40 47 54 59 65 70 70 64 56 51 50 51 54 55 54 54 56 59 61 63 66 69 70 70 71 71 70 70 70 72 75 77 79 80 81 82 84 84 85
70 70 70 70 70 70 70 70 70 70 71 71 70 70 69 68 67 67 66 66 66 65 64 64 62 60 57 54 53 53 52 53 53 52 52 53 49 42 40 41 44 47 46 39 34 35 40 46 52 56 61 67 69 64 58 55 54 54 53 53 53 52 52 56 59 62 67 70 70 71 72 73 72 71 71 73 75 76 78 80 81 82 84 84 84
74 74 73 73 73 72 73 73 74 74 74 74 74 73 72 71 71 70 69 69 69 68 66 65 63 61 58 56 55 54 53 53 50 47 48 52 50 43 38 36 37 41 41 36 35 37 40 45 51 53 55 61 63 61 58 59 59 56 52 53 54 53 52 54 57 62 68 70 69 71 73 73 72 71 71 73 75 76 77 79 81 82 84 85 84
77 77 76 76 76 76 76 77 77 77 78 77 77 76 75 74 73 73 73 72 72 70 69 67 65 62 59 57 55 53 51 50 46 43 45 48 47 43 38 31 28 31 30 27 28 33 37 41 47 50 52 56 58 56 55 56 56 53 53 54 55 53 52 53 56 62 68 71 70 72 73 73 71 70 71 73 75 76 77 79 80 82 84 85 84
80 80 79 79 79 78 78 78 78 78 78 78 78 78 77 76 76 76 76 76 75 74 73 71 68 65 61 59 56 53 51 48 45 43 44 43 41 42 41 31 22 23 25 26 30 38 44 49 52 54 55 54 50 48 49 51 52 54 55 56 56 55 55 57 60 65 69 70 71 72 72 71 70 70 71 73 75 75 76 78 80 82 84 85 84
81 80 80 80 80 80 78 77 76 75 75 76 76 77 77 77 77 77 77 77 77 77 76 75 72 67 63 60 58 54 50 47 45 44 44 41 37 39 41 33 25 22 22 22 26 34 44 51 54 54 55 52 47 46 50 55 58 61 62 62 62 61 61 62 66 68 68 68 70 71 70 69 69 70 72 73 74 75 76 78 80 83 84 84 84
79 79 79 79 80 80 79 77 75 74 73 72 72 72 73 73 74 74 73 73 74 75 76 76 74 70 65 62 60 57 52 46 44 44 45 41 38 39 40 35 27 22 20 20 21 25 34 45 50 52 55 55 51 49 52 57 61 63 66 69 69 67 66 67 68 67 66 66 68 68 68 69 70 71 72 73 73 74 76 78 81 83 84 84 84
79 80 80 80 80 80 79 78 76 74 74 73 72 71 70 70 69 69 69 70 73 74 75 75 74 72 68 63 61 59 55 48 43 43 45 42 40 41 42 40 35 29 29 30 26 22 26 36 44 48 52 53 51 51 53 55 57 57 60 65 67 66 68 69 68 66 67 68 68 67 68 69 70 70 71 72 73 74 77 79 81 83 83 83 84
78 79 79 80 81 80 80 79 78 77 77 77 75 73 72 71 70 69 71 73 75 74 73 72 71 69 68 64 59 57 55 50 44 43 44 44 43 44 45 45 41 38 38 38 31 25 26 33 39 44 48 49 50 50 52 53 55 56 58 61 63 65 67 67 67 69 71 71 69 68 68 69 69 70 71 71 73 75 77 79 81 82 82 83 84
77 79 80 81 81 81 81 80 79 78 78 78 77 75 75 74 73 74 75 76 76 74 72 69 67 66 65 62 58 54 52 49 45 42 44 45 46 48 50 51 47 42 40 40 36 33 35 39 43 47 51 51 49 49 49 49 51 54 56 59 61 62 62 64 67 70 72 71 68 68 68 68 69 70 71 72 74 75 77 80 81 82 82 82 83
78 80 81 82 82 82 81 80 80 80 80 79 78 77 76 75 75 76 77 76 75 74 71 67 64 63 62 60 56 53 50 48 45 43 44 47 51 52 54 57 57 54 50 48 46 43 42 44 47 50 52 53 54 54 54 53 51 53 55 58 59 59 59 62 66 69 70 68 67 67 68 69 69 70 71 73 74 76 78 81 82 82 82 82 83
80 82 83 83 82 82 82 82 82 82 81 81 80 78 77 76 76 76 75 74 73 73 70 67 64 62 61 59 57 54 51 49 48 46 45 48 53 57 58 61 64 66 63 61 60 59 57 56 55 55 55 56 57 58 59 59 58 59 60 61 60 60 60 62 65 66 67 67 67 67 68 69 69 70 72 74 76 78 80 81 81 81 81 82 84
84 85 85 85 85 84 84 84 83 82 81 81 80 79 78 77 76 75 73 72 72 71 69 67 65 62 61 60 58 56 54 53 52 50 48 48 52 57 61 63 66 70 71 70 68 68 66 64 63 61 60 60 60 61 62 62 62 62 62 63 63 63 63 64 65 66 67 67 67 67 68 69 70 71 73 75 77 79 80 80 80 80 82 83 84
87 87 86 86 85 84 83 82 81 81 80 80 79 78 78 77 75 73 73 73 72 70 68 65 63 61 60 59 58 57 56 56 55 53 52 51 52 55 61 64 66 69 72 73 73 73 72 69 66 64 63 63 63 63 61 61 61 61 62 62 62 63 64 65 66 67 68 68 68 68 69 70 71 73 75 76 78 79 80 80 80 81 82 84 85
88 88 87 87 86 85 83 82 82 81 81 80 79 79 79 78 75 74 74 74 73 71 68 64 61 60 59 58 57 57 56 57 57 57 55 54 54 55 58 63 66 68 70 70 71 73 74 73 69 66 66 66 65 63 62 60 60 60 60 61 61 63 65 68 69 70 70 69 69 69 71 72 73 75 76 77 78 79 80 80 81 82 84 85 86
88 88 88 88 88 87 86 84 84 84 82 81 80 80 80 79 77 76 75 74 73 72 69 65 62 61 59 57 57 57 57 58 59 59 58 57 57 57 58 61 65 67 68 68 68 68 69 69 68 66 65 65 64 63 61 61 61 62 63 64 65 68 69 71 72 72 71 71 71 72 73 74 75 75 76 77 78 79 81 82 83 84 85 86 86
89 89 89 89 88 87 86 85 85 85 84 83 83 83 82 81 79 78 76 75 74 73 71 68 65 63 61 59 58 58 58 58 59 60 60 59 59 59 59 61 64 66 67 69 69 68 67 68 68 68 67 67 66 66 66 66 67 68 68 69 70 71 72 72 73 73 73 73 74 74 75 75 75 75 76 78 80 81 82 83 84 85 85 86 86
91 91 91 90 88 87 85 84 84 84 84 84 84 83 82 81 80 79 78 77 75 74 72 71 68 65 63 61 59 58 58 57 58 59 60 60 60 61 61 62 63 65 67 68 70 69 69 69 70 71 71 71 70 70 70 70 71 71 71 71 72 72 72 73 73 73 74 74 74 74 75 75 76 78 79 81 82 83 83 84 84 85 86 86 87
93 92 91 90 89 87 86 85 84 84 85 85 84 83 82 82 82 81 80 78 77 75 73 72 70 68 65 62 61 60 58 57 56 58 59 59 60 62 63 63 64 65 66 68 69 70 71 70 70 71 72 73 73 73 72 72 72 72 72 72 72 72 73 73 74 74 74 75 76 76 77 78 79 81 81 82 83 83 84 84 85 86 87 86 84
Wind_Direction
234 236 238 241 243 245 247 249 250 250 251 254 257 260 263 265 267 270 272 274 277 279 282 285 289 293 295 297 299 302 304 305 306 309 312 315 316 318 321 324 328 330 329 329 328 327 329 332 338 342 342 341 342 344 345 345 345 345 345 343 340 336 334 334 334 338 342 344 345 349 352 354 357 1 5 8 8 8 7 5 2 1 359 358 357
235 237 239 241 244 246 247 249 250 251 253 255 257 260 263 266 268 270 271 273 275 277 279 282 286 289 293 295 296 299 301 302 303 306 309 312 313 314 316 320 324 326 326 326 325 324 325 329 334 337 337 337 339 340 341 342 342 342 342 342 341 338 336 334 332 333 336 338 340 344 348 350 351 355 360 3 5 6 5 4 2 360 358 358 357
239 239 241 242 243 245 246 248 250 252 254 256 258 260 263 265 266 268 270 272 273 275 278 280 283 286 290 292 294 296 298 300 302 304 307 308 309 311 313 317 321 323 323 323 323 321 322 326 331 333 333 334 336 336 337 338 338 338 339 339 340 339 337 335 333 331 331 332 335 340 344 345 347 350 354 359 2 3 3 2 1 359 357 356 355
241 242 243 244 245 245 247 249 251 253 255 258 260 261 263 263 264 266 269 271 272 275 277 280 282 284 286 289 292 294 297 299 301 303 306 306 307 309 311 315 318 320 320 320 320 320 320 324 327 328 329 331 333 333 333 335 335 335 335 337 337 337 336 335 333 331 330 329 331 337 340 341 343 347 352 356 359 1 1 1 359 357 356 354 353
241 242 243 244 245 245 247 248 251 253 256 259 261 261 262 263 264 266 269 271 272 274 276 278 280 282 284 287 290 292 296 299 300 301 303 304 305 307 309 313 316 317 318 318 318 318 319 322 324 324 325 327 329 330 330 331 332 332 332 334 335 335 334 333 332 330 328 326 327 333 336 337 339 344 349 354 357 358 359 359 357 356 355 353 352
242 242 243 244 245 245 246 247 250 253 256 258 260 261 262 263 265 267 269 271 273 274 276 277 279 280 283 285 288 291 295 297 299 300 302 303 304 305 308 310 312 314 315 315 315 316 317 319 320 321 322 324 325 327 328 328 328 329 330 331 332 333 332 331 329 326 325 323 323 328 331 332 335 340 346 351 354 356 357 357 356 354 353 352 351
244 243 244 245 247 247 247 249 251 254 256 258 260 262 263 265 266 267 269 270 272 274 275 277 278 279 281 284 286 290 293 295 297 298 300 302 303 304 306 308 310 311 312 312 313 314 314 316 317 318 319 320 322 323 325 326 326 327 328 328 329 330 329 329 327 322 320 319 319 321 324 327 331 336 342 347 351 353 354 355 354 353 352 351 351
244 245 246 247 248 249 250 251 253 255 256 258 260 262 263 265 266 267 268 269 271 272 274 275 277 279 281 283 286 289 291 294 295 296 299 300 301 302 304 305 307 308 309 309 310 311 312 313 314 315 316 317 318 320 322 323 323 324 325 326 327 327 327 327 325 320 314 314 313 313 316 323 330 335 340 344 348 350 352 352 352 351 351 350 350
245 246 247 248 249 250 252 253 255 256 257 258 259 261 262 263 265 266 267 269 270 272 274 276 277 279 281 283 285 287 289 291 293 295 297 298 299 301 302 303 305 306 307 307 308 309 309 310 311 312 313 314 315 317 319 320 321 321 323 324 324 325 325 325 322 315 308 307 308 308 312 322 331 335 338 342 346 348 349 349 349 349 349 349 349
247 248 249 250 251 252 253 255 256 257 258 259 260 261 263 264 265 266 267 268 270 272 274 275 277 279 281 283 284 286 287 289 291 294 295 296 297 299 300 302 303 304 305 305 306 306 307 308 310 310 311 312 313 314 315 318 319 319 320 321 321 322 323 322 318 311 305 305 306 306 312 324 332 335 337 340 343 346 347 347 347 347 348 348 348
249 250 251 252 254 255 255 256 257 258 259 261 262 263 264 266 266 267 268 269 271 272 273 275 277 279 281 282 284 285 286 288 290 292 293 294 295 297 299 300 302 303 303 304 304 305 306 308 308 308 309 309 310 311 313 315 316 316 317 318 318 320 321 319 315 309 305 304 302 303 313 326 331 333 336 338 340 343 344 344 346 346 346 347 348
251 252 253 254 256 256 257 257 258 259 260 262 263 264 266 267 267 268 269 271 272 273 274 276 278 280 281 283 284 285 286 287 288 290 291 293 294 296 298 299 300 301 301 302 302 303 305 306 306 306 306 307 308 309 310 312 313 313 314 315 315 318 318 316 313 308 304 301 297 299 312 323 328 331 333 335 338 340 341 343 344 346 345 345 347
251 252 254 255 256 257 258 259 260 260 261 263 264 265 266 267 269 270 271 272 273 274 275 277 278 279 280 281 282 284 285 286 287 289 290 292 293 295 297 298 299 299 299 300 301 302 302 303 304 304 304 305 306 307 308 310 310 311 312 312 313 315 314 312 310 307 303 298 292 296 309 318 323 327 329 332 336 337 339 341 343 345 345 345 346
252 253 254 256 257 258 258 259 260 261 263 264 266 267 268 269 270 271 272 273 274 275 276 276 277 277 279 280 282 283 284 286 287 288 289 291 293 295 296 296 296 297 298 298 299 299 300 301 301 302 302 303 304 305 307 308 308 309 310 310 310 311 309 307 307 305 301 294 288 293 306 315 319 323 327 331 334 336 338 340 342 343 344 344 345
253 254 255 256 256 257 258 259 260 261 263 264 265 267 267 268 270 271 272 273 274 275 276 276 277 278 279 280 282 283 284 286 287 288 290 291 292 293 294 294 295 295 295 296 296 297 298 298 300 301 301 302 303 304 306 307 307 307 307 307 306 305 303 303 304 303 299 292 287 294 304 312 317 321 326 331 333 335 337 339 340 342 342 343 344
254 255 255 256 257 257 258 259 260 261 263 264 265 266 267 268 269 270 271 272 273 274 275 276 277 278 280 281 282 283 284 286 287 288 289 289 290 291 291 292 292 292 292 293 294 295 296 297 298 299 300 301 303 305 307 306 304 303 303 302 300 298 298 301 302 302 297 289 287 295 303 310 317 322 327 330 332 334 336 337 339 340 341 341 342
256 257 258 258 259 260 260 261 262 263 264 265 266 266 267 268 269 270 271 272 273 274 275 276 277 279 280 281 282 283 284 285 286 287 287 288 288 289 289 289 290 290 291 292 293 293 294 296 297 298 299 301 303 306 307 304 300 299 300 298 296 294 295 299 301 300 294 287 289 297 303 309 317 322 327 330 331 333 334 335 337 339 340 340 340
258 258 259 260 261 262 263 264 264 265 265 266 267 267 268 269 270 272 273 274 275 275 276 277 278 279 280 281 282 283 284 285 286 287 287 288 288 288 288 288 289 289 290 291 291 292 294 295 296 298 299 301 305 307 305 301 298 298 296 293 292 292 292 296 299 297 291 285 289 297 303 309 315 320 324 328 330 332 333 334 335 337 338 339 339
259 260 261 262 263 263 264 264 265 266 267 267 269 270 270 271 272 273 274 274 275 276 278 278 279 279 280 281 282 283 284 285 286 287 287 288 287 288 288 288 289 289 289 290 291 293 294 295 297 299 300 303 306 305 302 299 296 293 290 289 290 290 290 292 295 294 289 285 289 297 304 310 314 318 322 326 328 330 331 333 334 335 336 338 338
263 263 264 265 265 266 266 266 267 267 268 269 270 270 271 272 273 273 274 275 276 277 278 279 280 281 282 282 283 284 284 284 285 287 288 288 288 289 290 290 291 291 291 292 293 294 295 296 298 299 301 304 305 303 299 294 289 287 286 287 289 288 288 291 293 292 288 287 292 300 306 310 314 318 321 324 326 327 329 331 333 334 335 336 337
264 265 266 267 268 269 270 270 270 270 271 272 272 272 273 273 273 274 276 276 277 278 279 280 281 282 283 284 285 285 285 286 288 289 288 289 290 291 292 293 293 293 294 294 294 294 295 297 298 299 301 303 303 299 292 285 283 283 284 286 288 288 287 290 293 292 290 292 298 303 306 309 314 318 320 323 324 325 327 330 332 333 334 335 336
265 266 268 269 270 270 272 273 273 274 274 274 274 275 274 273 273 275 278 279 280 281 282 283 283 284 285 286 287 287 288 289 290 289 288 289 291 292 293 293 293 295 297 298 297 297 299 301 301 300 301 301 297 291 284 280 282 284 285 287 288 288 287 290 292 292 293 295 300 303 306 310 314 316 319 322 323 324 325 328 330 331 333 334 335
264 265 267 268 269 271 273 274 275 276 276 277 277 276 276 276 278 279 280 281 282 283 283 284 284 286 287 287 288 288 289 289 289 290 291 292 292 292 293 293 294 297 300 301 300 301 302 304 302 302 303 300 290 283 281 280 282 285 288 289 289 288 287 289 291 292 293 295 298 302 306 309 312 314 317 320 322 323 324 326 328 330 332 333 334
263 264 265 267 268 270 271 272 273 274 275 277 278 276 277 280 282 282 283 283 283 284 284 285 286 287 287 288 288 289 289 290 290 291 292 293 293 293 294 294 296 300 304 303 301 300 301 301 299 300 304 301 290 278 276 278 283 288 290 289 290 289 288 288 291 292 292 293 297 301 304 307 310 312 316 319 321 322 324 325 326 328 330 332 333
263 264 265 266 266 267 267 266 267 268 270 273 274 274 277 280 281 282 284 284 284 285 286 286 288 288 289 289 289 289 289 290 291 292 293 293 293 293 294 296 300 304 304 302 298 297 299 302 301 300 302 302 294 280 274 280 287 289 288 289 291 292 290 289 292 293 293 295 297 300 302 305 308 311 314 318 320 322 323 324 324 326 328 331 331
264 264 265 266 266 266 266 266 266 267 269 271 273 274 276 278 279 280 282 283 284 285 286 288 289 290 290 290 290 289 290 290 290 292 294 294 293 293 295 298 301 300 300 298 295 294 298 301 301 300 303 305 298 281 275 285 290 285 283 288 293 294 292 291 292 294 295 296 298 300 301 304 307 311 314 317 320 320 321 322 323 324 327 329 330
264 264 265 266 266 266 267 267 268 269 270 271 272 273 275 276 278 279 281 282 284 285 287 288 289 290 291 291 291 291 291 291 292 292 292 291 292 293 295 297 297 295 297 297 291 291 296 298 297 297 303 308 303 286 276 281 284 282 283 289 294 296 294 293 294 295 296 297 298 300 303 304 307 310 313 316 318 319 319 320 321 323 325 327 328
264 265 265 266 267 267 268 268 269 270 271 271 272 273 274 275 277 279 280 282 283 285 287 288 289 290 291 291 292 292 292 292 292 291 289 290 291 291 292 295 295 295 296 292 284 282 285 286 285 287 292 302 309 304 290 279 275 277 281 284 289 294 294 294 295 296 296 298 299 302 305 306 307 309 311 313 315 317 317 318 319 321 323 325 326
266 267 267 268 268 269 269 270 271 271 272 272 273 273 274 276 277 278 280 281 283 284 286 287 287 289 290 291 290 290 291 292 291 290 290 292 293 293 294 295 295 294 294 289 282 280 279 276 275 278 284 293 304 312 308 291 278 276 277 279 282 287 289 291 294 297 299 300 300 303 305 306 306 307 309 311 313 314 315 316 317 319 322 323 324
267 268 269 269 270 271 271 272 272 272 273 274 274 275 276 276 277 278 279 281 282 282 283 284 285 287 289 290 290 290 291 292 292 291 291 293 294 294 295 293 292 292 293 287 282 283 283 280 278 279 282 287 292 300 305 298 286 281 280 279 278 281 285 289 291 295 299 301 301 303 305 304 303 305 306 309 311 312 313 314 316 318 320 321 322
267 268 269 270 271 271 272 273 273 274 274 275 276 277 278 278 279 279 279 280 280 281 282 283 285 287 289 290 290 291 291 291 290 289 290 292 291 290 290 290 290 291 292 289 285 283 279 276 277 280 281 283 286 291 295 294 288 282 278 274 272 274 279 285 288 291 296 300 301 302 303 302 301 302 304 307 308 309 311 312 314 316 318 320 321
266 267 269 270 271 272 273 274 274 275 275 276 276 277 278 278 279 279 279 279 279 280 282 283 285 287 288 288 288 288 288 288 288 289 290 290 287 285 286 291 295 295 292 286 283 285 282 276 275 277 279 281 283 285 287 289 287 280 271 266 267 269 273 279 283 286 291 296 298 300 301 299 298 299 301 303 305 306 308 310 312 315 317 318 319
266 267 269 270 271 272 273 274 274 275 275 275 276 276 277 277 277 278 278 278 278 279 281 282 284 285 287 287 285 284 284 284 285 288 289 288 285 286 291 298 300 297 292 282 273 277 282 279 275 272 273 278 283 283 280 282 286 283 272 266 267 271 272 275 279 283 287 292 295 298 299 298 296 297 299 300 302 304 307 309 311 313 316 317 318
267 267 268 269 270 271 272 273 274 274 275 275 275 276 276 276 276 277 277 277 278 279 279 281 283 284 285 286 284 282 281 280 281 284 286 285 285 289 295 299 299 295 290 281 271 269 272 271 271 269 266 269 276 278 274 274 280 282 275 267 266 269 271 273 275 279 284 288 292 296 299 297 294 295 296 298 301 304 306 307 310 312 314 315 317
268 268 269 270 270 271 271 272 273 273 274 274 274 275 275 276 276 277 277 277 278 278 279 280 282 283 283 284 282 281 279 277 278 280 280 280 284 287 288 295 301 299 292 283 277 278 274 264 262 264 261 260 266 272 272 271 273 274 269 263 263 266 270 273 274 276 281 285 290 295 297 295 292 293 295 297 300 303 305 307 309 311 312 314 316
268 269 270 270 270 271 271 272 272 272 272 273 273 273 274 275 275 276 276 277 277 277 278 279 280 281 282 282 280 279 277 274 275 275 272 272 276 276 275 286 303 305 295 281 276 284 283 271 265 265 263 262 265 269 268 266 265 263 261 261 264 268 272 273 273 273 277 283 289 293 294 292 290 291 293 296 300 303 304 306 308 310 311 312 314
268 269 269 269 270 270 271 271 272 272 273 273 272 272 273 273 274 275 276 276 277 277 277 278 279 279 281 281 280 279 276 273 273 273 270 268 267 262 261 268 281 287 281 269 261 266 271 271 270 270 267 265 262 257 255 257 261 262 263 263 265 269 272 273 272 273 277 283 288 291 290 288 288 290 294 297 300 302 304 305 307 308 309 311 312
266 267 267 267 267 268 269 270 271 273 273 274 273 273 273 273 274 275 276 276 277 277 278 278 277 278 278 279 279 278 276 274 274 273 271 270 263 254 253 255 261 274 281 274 265 264 262 260 261 262 261 259 255 251 253 259 264 267 267 265 264 267 271 273 274 275 279 284 287 288 287 286 288 291 294 297 299 301 303 304 305 306 308 309 310
263 263 264 265 266 266 267 268 270 272 274 275 275 275 275 275 276 276 277 279 280 280 279 278 277 276 276 276 277 277 275 273 272 270 269 267 260 254 253 253 256 271 277 260 254 263 258 249 248 250 249 250 255 262 266 267 267 267 266 264 265 268 270 271 272 275 280 285 287 285 284 286 289 292 294 296 298 300 301 303 304 305 307 308 309
261 261 262 263 265 266 267 268 270 272 274 276 277 277 277 278 278 278 280 283 285 284 282 279 276 274 273 273 274 275 274 272 269 266 264 260 253 251 250 244 239 247 253 244 242 255 254 241 237 239 244 250 262 272 275 273 270 267 264 263 264 266 268 270 272 276 281 286 286 284 284 287 289 291 293 295 296 298 299 301 303 304 305 306 308
261 261 262 263 265 266 268 270 271 273 275 276 277 277 278 279 279 280 283 286 287 285 283 280 277 274 272 271 271 272 272 270 267 264 262 257 250 246 246 243 238 240 247 250 248 246 241 235 235 241 251 261 269 273 274 273 271 268 265 265 266 269 272 276 279 281 283 284 284 284 285 286 288 289 291 292 294 296 298 300 302 303 304 305 307
262 262 262 263 264 266 269 270 271 273 275 275 276 277 277 278 279 282 284 286 286 286 284 281 278 275 272 270 269 268 267 266 264 261 259 255 249 241 240 243 244 244 248 252 248 239 236 240 246 251 257 264 267 269 271 273 272 270 268 269 272 275 279 281 281 281 281 281 282 283 284 285 285 287 289 290 293 295 298 300 301 302 303 305 307
262 263 263 263 264 266 268 270 271 273 274 275 275 276 277 278 281 284 285 285 285 285 285 282 279 276 273 270 267 265 263 261 259 256 254 253 250 244 238 238 242 245 248 251 250 245 246 252 255 256 258 262 265 267 270 272 272 273 273 274 277 279 280 280 278 277 277 279 281 282 282 283 284 285 287 289 292 295 297 299 300 301 303 304 305
261 263 264 264 265 267 268 270 271 273 274 275 275 276 277 280 283 285 285 285 285 285 284 282 280 277 273 270 267 265 263 260 258 255 252 250 250 247 243 239 240 243 247 251 252 252 255 260 262 262 262 263 265 267 268 270 272 274 276 277 279 279 279 277 275 274 275 278 280 281 281 281 282 284 287 289 292 295 297 299 300 301 302 303 304
262 263 265 266 267 268 269 270 272 273 274 274 275 276 278 281 284 284 284 286 287 286 283 281 280 277 274 271 268 266 264 263 260 256 253 251 250 248 247 244 242 243 246 251 253 254 256 261 264 265 265 266 267 268 269 271 273 275 276 277 278 277 276 274 273 273 276 279 280 279 279 281 282 284 287 290 293 295 297 298 299 300 300 301 302
263 264 266 267 267 269 270 271 272 273 273 274 275 277 279 282 283 282 283 285 287 287 284 280 278 276 274 272 269 267 265 265 263 259 255 253 251 250 250 249 248 247 248 251 252 253 256 260 264 265 265 266 268 269 271 273 274 275 275 275 275 274 272 271 271 274 277 278 278 279 279 281 283 285 288 291 293 295 296 296 297 298 299 300 301
263 264 265 266 267 269 270 271 272 272 273 274 275 277 279 281 282 283 283 285 286 287 284 280 277 276 274 272 270 268 266 265 264 262 259 256 253 252 251 252 253 253 253 255 256 256 257 259 262 264 265 267 268 269 271 272 272 272 271 271 270 269 269 270 272 275 277 278 279 279 280 281 284 286 289 291 292 293 294 295 296 296 298 299 300
263 264 265 266 267 269 270 270 271 271 272 273 275 277 279 281 282 283 284 285 285 285 284 281 278 276 275 273 271 269 267 265 264 263 261 259 257 255 254 253 254 255 256 257 258 258 258 259 260 261 263 264 266 266 267 266 266 266 267 267 268 268 270 272 274 276 277 278 279 279 280 282 285 287 288 289 290 291 292 293 294 295 297 298 299
262 264 265 266 268 269 269 270 270 270 271 273 275 277 279 281 282 283 284 285 285 284 282 280 277 276 274 273 272 270 268 267 265 263 262 260 259 258 257 256 255 255 256 257 257 257 257 257 257 258 259 260 261 262 263 263 264 264 265 266 268 269 271 272 274 275 277 278 278 280 281 283 284 285 286 287 288 289 290 292 293 294 295 297 298
263 264 266 267 268 269 269 269 270 271 272 274 276 278 280 281 282 283 283 284 283 282 280 278 276 275 274 273 272 271 270 269 268 266 263 261 260 259 259 257 256 256 256 256 257 257 257 256 256 257 258 259 260 262 263 264 265 266 267 268 270 271 272 274 275 276 277 278 279 280 281 281 282 283 284 286 287 288 289 290 291 293 294 296 298
264 265 267 268 268 269 269 270 271 272 273 275 277 278 279 280 282 282 283 282 281 280 278 276 274 274 273 272 271 271 271 271 270 269 267 265 263 262 260 259 258 257 256 256 256 257 257 257 257 257 257 257 258 260 262 264 265 266 268 269 270 272 273 274 275 276 277 277 278 278 279 280 281 282 283 284 285 286 287 289 290 292 293 295 298
Height
10977 10978 10979 10981 10982 10983 10984 10984 10985 10986 10986 10987 10988 10988 10989 10989 10989 10989 10988 10988 10987 10987 10987 10986 10986 10985 10984 10983 10982 10982 10981 10981 10980 10979 10979 10979 10978 10977 10976 10975 10974 10973 10971 10968 10966 10963 10961 10960 10959 10958 10956 10953 10951 10949 10946 10945 10943 10941 10938 10935 10932 10929 10927 10925 10923 10921 10919 10916 10914 10911 10908 10906 10903 10900 10897 10894 10891 10888 10885 10882 10879 10877 10874 10871 10868
10974 10975 10977 10978 10979 10980 10981 10981 10982 10983 10984 10985 10985 10986 10987 10987 10987 10986 10985 10985 10985 10984 10984 10984 10983 10982 10982 10981 10980 10979 10979 10978 10977 10976 10976 10976 10975 10974 10973 10972 10972 10970 10968 10966 10963 10960 10958 10957 10957 10955 10953 10950 10948 10945 10943 10941 10939 10937 10935 10932 10929 10927 10924 10922 10920 10918 10916 10914 10911 10909 10905 10903 10900 10897 10894 10891 10888 10885 10883 10880 10877 10875 10872 10868 10865
10971 10973 10974 10975 10976 10977 10978 10978 10979 10980 10981 10982 10983 10984 10984 10984 10984 10983 10982 10982 10981 10981 10981 10981 10980 10980 10979 10978 10977 10976 10976 10975 10974 10973 10973 10973 10972 10971 10970 10970 10969 10967 10965 10963 10960 10956 10954 10954 10954 10952 10949 10947 10945 10942 10940 10937 10935 10932 10930 10929 10926 10924 10921 10919 10917 10915 10913 10910 10908 10906 10903 10901 10898 10895 10892 10889 10886 10883 10880 10877 10875 10872 10869 10865 10862
10967 10969 10969 10971 10972 10973 10974 10975 10976 10977 10978 10979 10980 10981 10981 10981 10980 10980 10979 10979 10978 10978 10978 10977 10977 10977 10976 10976 10974 10973 10972 10972 10971 10970 10969 10969 10968 10968 10967 10966 10966 10964 10962 10960 10957 10953 10950 10949 10949 10947 10946 10944 10942 10939 10937 10935 10932 10929 10927 10925 10923 10920 10918 10915 10913 10911 10909 10906 10904 10902 10900 10898 10895 10892 10889 10886 10883 10881 10878 10875 10872 10869 10866 10863 10860
10964 10965 10965 10967 10968 10968 10970 10971 10972 10973 10974 10976 10977 10977 10977 10977 10977 10976 10976 10976 10975 10975 10975 10974 10974 10973 10973 10973 10971 10969 10969 10968 10968 10967 10966 10965 10965 10964 10963 10962 10962 10961 10959 10957 10954 10950 10947 10945 10945 10943 10941 10940 10938 10936 10934 10931 10929 10926 10923 10921 10919 10917 10914 10912 10910 10908 10906 10903 10901 10899 10897 10895 10892 10889 10886 10883 10881 10878 10876 10873 10870 10866 10863 10860 10856
10960 10961 10962 10962 10963 10964 10965 10966 10968 10969 10971 10972 10972 10973 10973 10973 10973 10973 10973 10972 10972 10971 10971 10971 10970 10970 10969 10969 10967 10966 10965 10964 10964 10964 10963 10962 10961 10961 10960 10959 10958 10957 10955 10953 10950 10947 10944 10942 10940 10938 10937 10936 10934 10932 10930 10928 10926 10923 10920 10917 10915 10914 10911 10908 10906 10904 10903 10901 10898 10896 10893 10891 10889 10886 10883 10880 10877 10875 10873 10870 10867 10863 10859 10856 10851
10956 10956 10958 10958 10958 10959 10960 10962 10964 10965 10966 10967 10967 10968 10968 10969 10969 10969 10969 10969 10968 10968 10967 10967 10967 10966 10965 10965 10964 10963 10962 10960 10960 10960 10960 10959 10957 10956 10956 10955 10954 10952 10951 10948 10946 10944 10940 10938 10936 10934 10932 10931 10930 10928 10926 10924 10922 10919 10916 10913 10911 10909 10907 10904 10902 10900 10899 10897 10896 10894 10891 10889 10886 10882 10879 10876 10873 10870 10868 10866 10864 10860 10856 10852 10848
10951 10952 10954 10954 10954 10955 10957 10958 10960 10961 10962 10962 10963 10963 10964 10964 10964 10964 10965 10964 10964 10964 10963 10963 10962 10962 10961 10961 10960 10959 10958 10956 10956 10956 10956 10955 10954 10952 10951 10951 10950 10948 10946 10944 10942 10940 10937 10934 10932 10930 10928 10927 10925 10924 10922 10920 10918 10915 10913 10910 10907 10905 10902 10900 10898 10896 10894 10893 10893 10891 10889 10886 10883 10880 10876 10872 10869 10866 10863 10861 10860 10857 10853 10848 10843
10946 10948 10949 10949 10949 10951 10954 10955 10956 10956 10957 10957 10958 10958 10959 10959 10959 10960 10960 10960 10960 10959 10959 10958 10958 10957 10957 10956 10956 10955 10954 10952 10951 10952 10952 10951 10950 10948 10946 10945 10945 10943 10941 10939 10937 10936 10933 10931 10929 10926 10924 10922 10921 10919 10917 10916 10914 10911 10909 10907 10904 10901 10899 10896 10894 10891 10889 10888 10888 10888 10886 10884 10880 10877 10874 10870 10866 10863 10859 10857 10855 10852 10849 10844 10838
10942 10943 10944 10943 10945 10947 10950 10951 10951 10952 10952 10953 10953 10954 10954 10954 10955 10955 10955 10955 10955 10955 10954 10954 10953 10953 10952 10952 10951 10950 10949 10948 10947 10947 10947 10946 10945 10944 10942 10940 10939 10938 10936 10934 10932 10930 10929 10927 10925 10923 10920 10918 10916 10914 10912 10911 10909 10907 10905 10903 10900 10897 10895 10892 10890 10887 10884 10883 10884 10884 10882 10880 10877 10874 10871 10867 10864 10860 10857 10854 10851 10848 10844 10840 10834
10937 10938 10938 10938 10940 10943 10944 10945 10945 10946 10947 10948 10949 10949 10950 10950 10950 10950 10950 10950 10951 10950 10950 10949 10949 10949 10948 10947 10946 10945 10944 10943 10943 10942 10942 10941 10940 10940 10937 10935 10934 10932 10930 10928 10926 10925 10923 10922 10921 10919 10916 10913 10911 10909 10907 10905 10904 10902 10900 10898 10895 10893 10890 10888 10885 10883 10881 10879 10879 10879 10877 10875 10873 10871 10868 10864 10861 10857 10854 10851 10847 10843 10839 10834 10829
10932 10932 10932 10934 10936 10937 10938 10939 10939 10940 10941 10943 10943 10944 10945 10944 10944 10945 10945 10946 10946 10945 10945 10945 10945 10944 10943 10942 10941 10940 10939 10938 10937 10937 10937 10935 10935 10935 10933 10931 10929 10927 10924 10922 10921 10919 10917 10917 10916 10914 10912 10910 10907 10904 10903 10901 10899 10897 10895 10893 10890 10888 10886 10884 10881 10879 10877 10876 10875 10873 10872 10870 10868 10866 10864 10861 10857 10853 10851 10847 10843 10838 10834 10828 10823
10926 10926 10927 10929 10930 10931 10932 10933 10933 10934 10935 10937 10938 10939 10939 10938 10938 10939 10940 10941 10941 10940 10940 10941 10940 10939 10938 10937 10936 10934 10933 10932 10931 10932 10931 10930 10930 10930 10928 10926 10924 10922 10919 10917 10915 10913 10911 10910 10909 10907 10906 10905 10903 10900 10898 10896 10893 10892 10890 10887 10885 10883 10882 10879 10877 10875 10873 10871 10870 10869 10867 10865 10864 10862 10859 10856 10853 10849 10847 10843 10839 10834 10829 10823 10817
10920 10920 10922 10923 10924 10925 10927 10927 10927 10928 10930 10932 10933 10934 10933 10932 10932 10933 10934 10935 10935 10934 10935 10935 10934 10933 10932 10931 10930 10928 10927 10926 10925 10925 10925 10925 10924 10924 10923 10921 10919 10917 10914 10911 10909 10906 10904 10904 10903 10901 10899 10899 10898 10896 10893 10890 10887 10886 10884 10882 10879 10878 10876 10874 10872 10870 10868 10867 10865 10864 10862 10861 10859 10857 10855 10851 10848 10845 10842 10838 10834 10829 10824 10819 10813
10914 10914 10916 10917 10917 10919 10920 10921 10922 10923 10925 10927 10927 10928 10927 10927 10926 10927 10928 10929 10928 10928 10928 10928 10927 10927 10927 10926 10924 10922 10921 10920 10919 10918 10919 10918 10918 10917 10916 10914 10912 10910 10908 10906 10903 10900 10898 10897 10896 10894 10892 10891 10891 10891 10889 10885 10881 10879 10878 10876 10874 10872 10870 10869 10867 10865 10863 10861 10861 10859 10858 10856 10855 10852 10850 10847 10844 10841 10838 10834 10830 10825 10820 10814 10808
10907 10908 10909 10910 10911 10913 10914 10915 10916 10918 10919 10921 10921 10921 10920 10920 10920 10921 10922 10922 10921 10921 10921 10920 10920 10920 10920 10920 10918 10916 10914 10914 10913 10912 10912 10911 10910 10910 10909 10907 10905 10903 10901 10900 10898 10894 10892 10891 10890 10888 10885 10884 10884 10885 10884 10881 10876 10873 10871 10870 10868 10866 10864 10863 10861 10860 10858 10857 10856 10855 10853 10852 10850 10847 10845 10842 10839 10836 10833 10829 10825 10820 10815 10809 10803
10900 10901 10902 10903 10905 10906 10907 10909 10910 10911 10912 10913 10913 10912 10912 10913 10913 10913 10914 10914 10914 10914 10914 10913 10913 10913 10913 10912 10911 10910 10908 10907 10906 10904 10903 10903 10902 10902 10901 10900 10898 10897 10895 10893 10891 10889 10886 10885 10883 10882 10879 10878 10878 10878 10878 10875 10871 10867 10865 10864 10862 10861 10860 10858 10856 10855 10855 10853 10851 10850 10849 10847 10846 10843 10840 10838 10834 10831 10828 10824 10820 10815 10810 10804 10798
10893 10894 10895 10896 10898 10899 10900 10901 10902 10903 10904 10904 10904 10904 10904 10905 10905 10906 10907 10907 10906 10906 10906 10907 10907 10906 10906 10905 10904 10903 10901 10900 10898 10896 10895 10894 10893 10893 10893 10892 10891 10891 10889 10886 10884 10883 10881 10879 10877 10876 10874 10872 10872 10871 10870 10868 10865 10862 10860 10859 10858 10857 10856 10854 10851 10850 10850 10849 10847 10846 10844 10843 10841 10838 10836 10833 10830 10826 10823 10819 10815 10810 10805 10799 10794
10887 10888 10889 10890 10892 10893 10893 10894 10894 10895 10895 10896 10897 10897 10897 10897 10898 10899 10899 10899 10899 10899 10899 10899 10898 10898 10897 10897 10896 10895 10893 10892 10891 10889 10887 10885 10884 10883 10884 10884 10884 10884 10883 10880 10878 10876 10875 10873 10871 10870 10868 10866 10865 10864 10863 10862 10859 10856 10855 10854 10853 10852 10851 10850 10847 10845 10844 10844 10843 10841 10840 10838 10836 10833 10830 10828 10825 10821 10818 10814 10810 10805 10799 10794 10788
10881 10882 10883 10884 10885 10886 10886 10887 10888 10888 10889 10890 10890 10890 10890 10890 10891 10892 10892 10892 10892 10892 10891 10891 10890 10889 10889 10888 10888 10887 10885 10884 10884 10883 10880 10877 10876 10875 10875 10876 10875 10876 10876 10874 10872 10870 10868 10867 10865 10864 10861 10860 10858 10857 10856 10855 10853 10851 10850 10849 10848 10847 10846 10845 10843 10840 10839 10838 10838 10837 10835 10833 10830 10828 10825 10822 10819 10816 10813 10809 10805 10799 10794 10788 10782
10875 10876 10876 10878 10879 10879 10879 10880 10881 10882 10882 10883 10884 10884 10883 10883 10884 10884 10884 10884 10885 10885 10884 10884 10884 10883 10882 10881 10880 10879 10878 10877 10878 10878 10874 10870 10868 10867 10867 10867 10866 10866 10868 10868 10866 10865 10864 10862 10860 10858 10856 10855 10853 10851 10850 10850 10848 10846 10845 10843 10842 10841 10840 10839 10837 10835 10834 10833 10832 10831 10829 10827 10824 10822 10820 10817 10814 10811 10808 10804 10799 10794 10788 10782 10776
10870 10870 10871 10872 10872 10873 10873 10873 10873 10874 10875 10876 10876 10877 10876 10877 10877 10878 10878 10878 10878 10878 10878 10878 10877 10876 10876 10875 10873 10872 10871 10870 10871 10871 10869 10866 10864 10861 10860 10859 10858 10858 10860 10860 10859 10859 10858 10857 10855 10853 10851 10850 10848 10847 10845 10844 10843 10841 10839 10838 10837 10835 10834 10834 10832 10830 10829 10828 10826 10825 10823 10821 10819 10816 10814 10812 10809 10805 10802 10798 10793 10788 10783 10777 10771
10864 10864 10865 10866 10866 10867 10868 10868 10867 10868 10868 10868 10869 10869 10869 10870 10870 10871 10872 10872 10871 10871 10871 10871 10871 10870 10869 10868 10866 10865 10865 10864 10864 10862 10861 10860 10859 10856 10854 10852 10851 10852 10854 10853 10852 10851 10851 10851 10850 10848 10846 10845 10844 10842 10840 10839 10838 10836 10834 10833 10832 10830 10829 10828 10827 10825 10824 10823 10821 10819 10817 10815 10813 10811 10809 10807 10803 10800 10796 10792 10787 10783 10777 10772 10766
10857 10858 10859 10860 10860 10861 10862 10862 10862 10862 10862 10862 10862 10862 10862 10863 10863 10864 10864 10864 10864 10864 10863 10863 10864 10864 10862 10861 10860 10858 10858 10857 10857 10856 10854 10853 10852 10850 10847 10844 10844 10846 10847 10847 10846 10845 10844 10845 10845 10843 10842 10840 10839 10837 10835 10833 10831 10830 10829 10828 10826 10825 10824 10823 10822 10820 10818 10817 10815 10813 10811 10809 10807 10806 10803 10801 10798 10794 10791 10786 10781 10777 10772 10766 10761
10851 10851 10852 10853 10854 10855 10856 10856 10856 10857 10857 10857 10857 10857 10857 10857 10857 10856 10856 10856 10856 10856 10856 10856 10856 10856 10855 10854 10853 10852 10852 10851 10849 10849 10848 10846 10844 10842 10840 10837 10838 10839 10840 10839 10839 10839 10839 10839 10838 10838 10836 10836 10835 10833 10830 10828 10826 10824 10824 10823 10821 10820 10819 10818 10817 10815 10813 10811 10809 10808 10805 10803 10801 10799 10797 10795 10791 10788 10784 10780 10775 10771 10766 10761 10756
10844 10845 10845 10846 10847 10848 10849 10849 10850 10850 10851 10851 10851 10851 10851 10851 10851 10850 10849 10849 10849 10849 10849 10849 10849 10848 10848 10847 10846 10845 10845 10844 10842 10842 10841 10838 10835 10834 10833 10832 10832 10832 10832 10832 10831 10832 10832 10833 10832 10831 10831 10830 10830 10828 10825 10822 10821 10820 10819 10818 10816 10815 10814 10813 10812 10810 10808 10806 10804 10802 10800 10797 10795 10793 10790 10788 10784 10781 10778 10774 10770 10765 10761 10756 10751
10837 10838 10839 10839 10840 10841 10842 10842 10842 10843 10844 10844 10844 10844 10844 10844 10843 10843 10843 10842 10842 10843 10842 10842 10842 10841 10840 10840 10839 10838 10838 10836 10835 10834 10834 10832 10829 10827 10828 10827 10825 10825 10826 10826 10824 10823 10824 10825 10825 10825 10826 10825 10824 10823 10821 10818 10816 10814 10813 10812 10810 10809 10808 10807 10806 10805 10803 10801 10799 10796 10794 10791 10788 10785 10783 10780 10778 10775 10772 10768 10764 10760 10756 10751 10747
10830 10830 10831 10832 10833 10834 10835 10835 10835 10836 10836 10837 10837 10837 10837 10836 10836 10836 10836 10835 10836 10836 10836 10835 10834 10833 10833 10833 10832 10831 10831 10830 10828 10826 10827 10827 10825 10823 10822 10821 10819 10818 10819 10819 10817 10816 10818 10819 10818 10819 10820 10820 10818 10817 10816 10813 10810 10808 10808 10806 10804 10803 10803 10802 10801 10800 10798 10795 10792 10790 10787 10785 10782 10779 10776 10774 10772 10769 10766 10763 10759 10755 10751 10747 10742
10822 10822 10823 10824 10825 10826 10827 10827 10828 10828 10829 10829 10829 10830 10830 10829 10829 10829 10828 10828 10829 10829 10828 10828 10827 10826 10826 10827 10826 10826 10826 10825 10821 10818 10818 10820 10819 10816 10815 10813 10811 10810 10810 10810 10809 10809 10811 10812 10811 10812 10814 10813 10811 10811 10810 10807 10803 10802 10802 10800 10798 10797 10798 10797 10796 10794 10792 10790 10787 10784 10782 10780 10777 10774 10771 10769 10766 10764 10760 10757 10754 10750 10746 10742 10738
10814 10815 10816 10817 10818 10818 10819 10819 10820 10821 10821 10821 10822 10822 10822 10822 10822 10822 10821 10821 10821 10821 10821 10821 10820 10820 10821 10821 10820 10819 10819 10818 10815 10809 10808 10811 10811 10809 10807 10804 10802 10802 10803 10803 10803 10805 10808 10807 10805 10806 10808 10806 10805 10806 10805 10801 10797 10796 10796 10795 10793 10792 10792 10790 10789 10788 10786 10784 10782 10779 10777 10776 10773 10769 10766 10764 10761 10758 10755 10751 10748 10745 10742 10738 10733
10806 10807 10808 10809 10810 10810 10811 10811 10812 10813 10813 10814 10814 10814 10814 10814 10814 10814 10814 10813 10813 10813 10813 10814 10814 10814 10815 10815 10814 10811 10810 10810 10808 10803 10801 10802 10804 10802 10800 10798 10796 10796 10797 10797 10798 10803 10808 10806 10800 10799 10800 10799 10800 10802 10801 10797 10793 10790 10789 10789 10789 10789 10787 10784 10782 10781 10779 10777 10776 10774 10772 10771 10768 10764 10761 10759 10755 10752 10748 10745 10743 10740 10737 10733 10728
10799 10800 10801 10801 10802 10802 10803 10804 10804 10804 10805 10805 10806 10806 10806 10806 10806 10806 10806 10805 10804 10804 10805 10806 10807 10807 10808 10808 10808 10806 10803 10801 10798 10796 10795 10795 10794 10794 10794 10793 10791 10789 10790 10790 10791 10795 10801 10801 10797 10793 10790 10790 10793 10796 10795 10792 10788 10784 10781 10780 10781 10783 10782 10780 10777 10776 10774 10772 10771 10770 10768 10765 10763 10759 10756 10754 10750 10746 10743 10740 10737 10735 10732 10728 10723
10793 10793 10793 10794 10794 10795 10795 10795 10795 10796 10796 10796 10797 10797 10798 10798 10798 10798 10797 10796 10796 10797 10798 10798 10799 10800 10800 10800 10799 10798 10798 10795 10791 10790 10790 10788 10787 10787 10788 10788 10785 10782 10780 10781 10783 10785 10788 10789 10790 10789 10786 10782 10784 10787 10788 10786 10782 10780 10778 10777 10777 10777 10777 10775 10773 10771 10768 10766 10766 10765 10763 10760 10757 10754 10752 10749 10745 10741 10737 10734 10732 10729 10726 10723 10718
10784 10785 10786 10786 10786 10787 10787 10787 10787 10787 10787 10788 10789 10789 10789 10789 10789 10788 10788 10788 10788 10789 10790 10791 10791 10791 10791 10791 10789 10789 10789 10788 10787 10787 10786 10783 10781 10782 10783 10782 10780 10776 10774 10774 10775 10776 10778 10778 10779 10783 10783 10779 10776 10778 10780 10779 10776 10774 10774 10774 10772 10771 10770 10769 10769 10766 10763 10761 10760 10760 10758 10755 10751 10749 10747 10743 10739 10735 10732 10729 10726 10724 10721 10717 10713
10775 10776 10777 10777 10777 10778 10778 10778 10778 10778 10778 10779 10779 10780 10780 10780 10780 10779 10779 10779 10779 10780 10781 10782 10783 10784 10783 10782 10781 10780 10779 10780 10781 10783 10781 10778 10777 10777 10777 10776 10774 10770 10768 10769 10770 10770 10771 10771 10772 10776 10779 10777 10774 10774 10774 10772 10768 10768 10768 10767 10765 10765 10765 10764 10764 10762 10757 10755 10755 10754 10752 10749 10746 10743 10741 10738 10734 10730 10727 10724 10721 10719 10715 10712 10708
10765 10766 10767 10767 10767 10767 10767 10767 10768 10768 10768 10769 10770 10770 10770 10770 10770 10770 10769 10769 10770 10771 10772 10773 10774 10775 10774 10773 10772 10771 10771 10772 10774 10775 10774 10773 10772 10771 10770 10770 10769 10766 10765 10765 10766 10767 10768 10768 10768 10770 10772 10772 10771 10769 10766 10763 10760 10760 10760 10759 10759 10760 10759 10758 10758 10755 10751 10749 10750 10749 10747 10743 10740 10738 10735 10732 10728 10725 10723 10719 10716 10713 10709 10706 10702
10755 10755 10756 10756 10756 10756 10756 10756 10757 10757 10757 10758 10759 10759 10760 10760 10760 10760 10759 10759 10760 10761 10762 10763 10764 10765 10765 10763 10761 10762 10763 10764 10765 10766 10765 10766 10766 10765 10765 10765 10765 10764 10762 10760 10761 10766 10768 10766 10764 10764 10765 10766 10766 10763 10759 10756 10755 10754 10754 10753 10752 10753 10752 10751 10750 10748 10746 10745 10745 10743 10741 10737 10734 10732 10729 10725 10722 10720 10717 10714 10711 10707 10703 10700 10696
10744 10744 10744 10744 10744 10744 10745 10746 10746 10747 10747 10748 10748 10749 10749 10749 10749 10749 10749 10749 10750 10751 10752 10753 10754 10756 10756 10753 10751 10752 10754 10755 10755 10755 10756 10758 10758 10757 10759 10759 10756 10755 10756 10756 10757 10761 10763 10761 10761 10761 10760 10759 10758 10756 10753 10751 10749 10748 10748 10746 10745 10746 10746 10744 10743 10742 10742 10741 10739 10736 10733 10730 10727 10725 10723 10719 10716 10714 10711 10708 10705 10701 10697 10694 10689
10732 10733 10733 10732 10733 10733 10734 10736 10736 10737 10738 10739 10739 10740 10740 10739 10739 10739 10739 10739 10740 10741 10742 10743 10744 10745 10746 10745 10742 10742 10744 10747 10748 10747 10748 10750 10750 10750 10752 10750 10746 10745 10748 10748 10747 10749 10751 10752 10754 10754 10750 10747 10747 10747 10746 10745 10743 10742 10741 10739 10739 10740 10739 10737 10737 10737 10737 10735 10732 10728 10726 10723 10721 10719 10717 10713 10711 10708 10705 10702 10699 10695 10691 10687 10683
10721 10722 10722 10722 10723 10723 10724 10726 10727 10728 10729 10729 10730 10731 10731 10731 10731 10730 10730 10730 10730 10731 10731 10732 10733 10734 10736 10736 10734 10732 10734 10738 10741 10740 10740 10741 10743 10743 10743 10741 10737 10737 10738 10738 10737 10738 10740 10742 10743 10742 10739 10738 10738 10739 10738 10736 10735 10736 10734 10733 10733 10733 10731 10730 10731 10731 10730 10727 10724 10721 10719 10717 10715 10713 10711 10707 10704 10702 10699 10696 10693 10689 10685 10680 10675
10710 10711 10712 10713 10713 10714 10715 10716 10718 10718 10719 10719 10720 10721 10722 10722 10721 10721 10720 10720 10719 10719 10720 10720 10721 10722 10724 10724 10725 10724 10725 10727 10731 10732 10731 10732 10734 10735 10734 10731 10729 10730 10731 10731 10731 10731 10731 10733 10734 10733 10732 10731 10731 10730 10729 10728 10727 10728 10727 10726 10725 10726 10725 10724 10724 10723 10722 10719 10717 10714 10713 10711 10709 10707 10704 10701 10698 10696 10693 10690 10686 10682 10678 10673 10669
10701 10701 10702 10703 10705 10706 10707 10708 10709 10709 10709 10709 10710 10711 10711 10711 10711 10711 10710 10709 10708 10708 10708 10708 10709 10710 10711 10712 10713 10715 10716 10718 10720 10722 10722 10722 10724 10726 10726 10723 10722 10722 10723 10724 10724 10723 10723 10724 10725 10726 10725 10724 10723 10722 10721 10721 10720 10720 10721 10720 10720 10720 10719 10718 10717 10715 10714 10712 10709 10707 10706 10704 10702 10700 10697 10694 10691 10689 10686 10682 10678 10674 10671 10667 10662
10690 10691 10692 10693 10695 10697 10698 10699 10699 10699 10699 10699 10700 10701 10701 10702 10701 10701 10700 10699 10698 10697 10697 10697 10697 10698 10699 10700 10702 10704 10705 10707 10710 10712 10713 10713 10713 10715 10716 10716 10715 10715 10715 10715 10715 10715 10715 10716 10716 10717 10716 10715 10713 10712 10712 10713 10714 10714 10714 10714 10714 10713 10712 10710 10709 10708 10706 10704 10702 10700 10698 10696 10694 10692 10690 10686 10684 10682 10678 10674 10671 10667 10663 10659 10655
10679 10680 10681 10683 10686 10688 10689 10689 10690 10689 10689 10689 10690 10691 10692 10692 10692 10691 10690 10689 10688 10687 10686 10686 10687 10687 10688 10690 10691 10693 10695 10697 10698 10700 10702 10703 10703 10704 10706 10706 10706 10705 10705 10706 10706 10706 10707 10707 10708 10708 10707 10706 10704 10704 10704 10705 10705 10706 10705 10705 10704 10704 10703 10702 10701 10700 10698 10696 10694 10693 10691 10688 10687 10685 10682 10679 10676 10673 10669 10666 10663 10659 10656 10652 10649
10670 10670 10671 10673 10676 10678 10679 10680 10680 10680 10680 10680 10680 10681 10682 10683 10682 10682 10681 10680 10679 10678 10677 10676 10677 10677 10678 10680 10681 10683 10685 10686 10687 10688 10690 10692 10693 10693 10694 10695 10696 10695 10695 10695 10696 10697 10697 10697 10697 10698 10697 10696 10696 10695 10696 10696 10696 10696 10696 10696 10695 10695 10694 10694 10693 10691 10689 10688 10686 10684 10682 10680 10678 10676 10673 10670 10667 10664 10661 10658 10655 10652 10648 10645 10642
10660 10661 10662 10663 10665 10667 10669 10671 10671 10671 10671 10671 10671 10672 10673 10673 10673 10672 10672 10671 10671 10670 10668 10667 10667 10668 10668 10670 10672 10674 10675 10675 10676 10677 10679 10681 10682 10683 10683 10684 10685 10685 10685 10685 10685 10685 10686 10686 10686 10687 10687 10687 10687 10687 10687 10687 10687 10687 10687 10687 10687 10686 10686 10685 10683 10682 10680 10679 10677 10676 10673 10671 10669 10667 10664 10661 10658 10655 10652 10649 10647 10644 10641 10638 10635
10649 10650 10651 10653 10655 10657 10659 10661 10661 10661 10661 10662 10662 10663 10663 10664 10664 10664 10663 10663 10662 10661 10660 10659 10659 10659 10660 10661 10663 10665 10665 10666 10667 10668 10669 10670 10672 10673 10674 10673 10673 10674 10675 10675 10675 10675 10675 10675 10676 10677 10677 10677 10678 10678 10678 10678 10678 10678 10678 10678 10678 10677 10676 10675 10673 10672 10671 10669 10668 10666 10664 10662 10660 10658 10655 10652 10649 10646 10643 10641 10639 10636 10633 10630 10627
10639 10639 10640 10642 10644 10647 10649 10651 10651 10651 10652 10652 10652 10653 10653 10654 10654 10655 10655 10655 10654 10653 10652 10651 10650 10650 10651 10652 10654 10655 10656 10657 10657 10658 10659 10660 10662 10664 10665 10664 10663 10664 10666 10666 10665 10665 10666 10666 10667 10668 10668 10668 10669 10669 10669 10669 10669 10669 10669 10669 10668 10667 10666 10665 10664 10663 10661 10659 10657 10655 10653 10652 10650 10648 10645 10643 10640 10638 10635 10633 10630 10628 10625 10622 10619
10628 10629 10630 10632 10634 10636 10638 10640 10640 10641 10642 10642 10642 10643 10643 10644 10644 10645 10646 10646 10646 10645 10644 10642 10641 10642 10643 10644 10645 10646 10646 10647 10647 10648 10649 10650 10652 10653 10654 10654 10654 10655 10657 10656 10655 10656 10657 10657 10657 10658 10659 10659 10659 10659 10659 10659 10659 10658 10658 10658 10658 10657 10656 10655 10653 10652 10650 10649 10647 10645 10643 10642 10641 10639 10637 10634 10631 10629 10627 10624 10622 10620 10617 10614 10611
10617 10618 10620 10622 10624 10626 10628 10629 10630 10630 10631 10631 10632 10632 10633 10633 10634 10634 10635 10636 10636 10636 10635 10634 10633 10633 10635 10636 10636 10636 10636 10637 10638 10638 10639 10640 10641 10642 10643 10643 10644 10645 10646 10646 10645 10646 10647 10647 10648 10649 10649 10650 10649 10649 10649 10648 10648 10647 10647 10647 10646 10645 10644 10643 10642 10641 10640 10638 10636 10635 10634 10633 10632 10630 10627 10625 10622 10620 10618 10616 10614 10611 10609 10606 10603
10606 10607 10609 10611 10612 10614 10616 10618 10619 10620 10620 10621 10621 10622 10623 10623 10623 10623 10624 10624 10625 10625 10626 10625 10624 10624 10626 10628 10627 10626 10626 10627 10628 10628 10629 10631 10631 10631 10632 10632 10632 10633 10634 10634 10635 10635 10636 10636 10637 10638 10639 10639 10639 10639 10638 10637 10637 10636 10636 10635 10635 10634 10634 10633 10632 10631 10630 10628 10627 10626 10625 10623 10622 10620 10618 10616 10614 10612 10610 10608 10605 10603 10600 10597 10595